CAPE
0 0 0 0 0 0 0 0 10 0 5 47 173 133 94 46 58 101 134 56 54 77 154 213 258 281 296 575 682 753 490 413
0 0 0 0 0 3 10 3 0 9 54 71 124 181 143 141 32 122 222 144 153 84 91 140 133 234 287 309 349 836 1037 967
0 0 0 0 0 0 12 30 0 0 8 73 93 206 240 232 107 53 146 141 170 131 124 86 78 103 205 249 201 292 757 998
0 0 0 0 0 0 2 0 11 7 23 31 108 104 227 297 237 225 210 195 228 139 145 139 186 278 191 310 261 260 251 491
0 0 0 0 0 0 0 0 8 1 0 54 119 90 231 355 395 411 473 359 354 293 248 218 180 248 344 333 329 505 402 387
0 0 0 14 10 7 21 6 0 6 25 105 178 369 419 572 824 786 726 710 659 541 404 330 266 271 256 297 183 198 181 124
0 0 0 18 37 21 17 11 12 0 64 133 157 602 796 965 926 889 879 794 762 603 511 611 486 335 577 428 247 322 266 80
0 0 1 4 34 21 5 2 3 19 4 84 241 701 975 1100 1158 1145 1075 930 818 873 1153 1091 981 916 735 448 191 136 113 65
5 0 0 6 16 22 12 9 6 12 28 36 327 698 994 1061 1177 1167 1112 1115 1062 1115 1070 982 869 890 812 542 387 257 300 214
17 5 0 0 5 41 8 26 55 21 10 6 0 44 698 737 949 1018 1054 991 994 920 848 940 1125 1222 1200 1078 844 616 545 469
33 10 0 0 7 44 36 7 44 42 17 5 4 0 109 744 953 1142 1185 1105 1134 1106 1155 908 811 914 847 908 739 576 442 293
66 31 1 0 0 34 38 4 14 60 25 84 83 57 226 761 868 992 1249 1408 1449 1486 1121 952 950 1003 695 696 719 699 648 681
12 26 1 1 3 20 31 2 8 12 12 13 149 107 271 561 917 1027 1208 1470 1607 1314 1138 1073 1110 1139 841 517 314 603 941 841
16 2 0 0 2 22 22 7 0 1 15 135 151 233 163 502 911 1175 1276 1391 1469 1152 784 614 782 640 347 310 467 561 751 564
66 24 16 9 1 49 30 5 0 0 5 240 200 190 308 516 831 1068 1311 1334 975 903 794 820 661 510 373 366 184 396 344 371
53 86 59 41 27 19 28 1 10 22 212 342 288 254 435 579 769 999 773 879 948 636 490 277 223 235 155 47 14 45 143 27
21 22 30 24 18 16 25 42 159 228 355 450 438 409 470 748 746 704 528 696 545 446 344 203 231 115 0 0 0 36 103 124
26 34 42 46 25 33 27 43 117 227 512 525 551 494 539 653 667 576 401 440 422 435 383 358 267 100 24 0 0 1 88 178
38 31 59 44 0 0 0 16 25 253 449 547 606 557 533 541 555 241 43 282 429 447 450 528 421 219 111 20 0 0 0 0
CIN
0 0 0 0 0 0 0 0 -44 0 -175 -116 -223 -119 -220 -322 -253 -130 -70 -142 -129 -74 -277 -269 -136 -113 -112 -83 -130 -109 -116 -105
0 0 0 0 0 -14 -8 -3 0 -73 -87 -69 -60 -138 -76 -78 -113 -143 -59 -50 -33 -93 -196 -238 -267 -257 -237 -60 -214 -144 -85 -55
0 0 0 0 0 0 -3 -1 0 0 -33 -70 -47 -57 -80 -110 -114 -56 -68 -47 -65 -271 -286 -68 -146 -271 -197 -123 -79 -143 -195 -133
0 0 0 0 0 0 -1 0 -88 -32 -67 -73 -42 -52 -73 -62 -50 -33 -20 -40 -12 -15 -24 -229 -305 -253 -271 -225 -197 -186 -266 -172
0 0 0 0 0 0 0 0 -36 -24 0 -65 -77 -79 -38 -47 -52 -118 -32 -34 -38 -44 -39 -30 -64 -254 -187 -174 -162 -111 -112 -135
0 0 0 -59 -22 -26 -23 -37 -5 -49 -38 -44 -266 -222 -326 -223 -110 -75 -49 -54 -64 -61 -63 -55 -63 -57 -53 -107 -131 -126 -61 -59
0 0 0 -38 -37 -23 -19 -20 -24 0 -42 -50 -70 -213 -195 -114 -118 -118 -99 -99 -92 -92 -87 -67 -73 -85 -56 -51 -139 -84 -43 -42
0 0 -38 -53 -32 -12 -20 -20 -45 -33 -79 -69 -116 -155 -130 -148 -123 -126 -126 -99 -102 -110 -103 -65 -71 -78 -66 -75 -58 -85 -66 -57
-4 -1 0 -38 -42 -58 -75 -66 -60 -24 -24 -104 -120 -95 -67 -135 -147 -148 -169 -145 -135 -126 -150 -134 -114 -101 -99 -97 -84 -81 -74 -90
-3 -6 0 0 -38 -50 -70 -94 -65 -31 -42 -26 0 -66 -60 -99 -144 -141 -124 -104 -88 -93 -151 -140 -147 -90 -51 -34 -30 -41 -46 -45
-10 -15 0 0 -24 -43 -29 -48 -105 -70 -56 -20 -155 0 -326 -85 -106 -169 -148 -96 -72 -107 -111 -164 -195 -150 -129 -76 -59 -44 -35 -89
-4 -1 -1 0 -9 -28 -13 -39 -52 -54 -66 -216 -211 -213 -190 -98 -107 -120 -192 -147 -188 -125 -188 -194 -153 -108 -112 -75 -40 -16 -5 -5
-2 -15 -3 -14 -55 -37 -14 -12 -38 -48 -51 -87 -137 -150 -61 -141 -110 -72 -153 -137 -146 -151 -167 -174 -157 -90 -72 -72 -82 -17 -4 -3
-4 -3 0 0 -40 -3 -11 -15 0 -32 -18 -238 -224 -104 -246 -157 -73 -68 -208 -169 -160 -196 -193 -216 -175 -151 -155 -139 -45 -10 -1 -2
-50 -1 -110 -53 -4 -28 -17 -7 0 0 -250 -210 -187 -118 -17 -211 -286 -172 -194 -191 -218 -188 -200 -176 -171 -162 -182 -140 -136 -31 -16 -9
-15 -38 -44 -62 -51 -115 -187 -22 -87 -255 -206 -155 -166 -217 -287 -173 -265 -195 -173 -261 -194 -224 -235 -263 -255 -216 -174 -220 -240 -201 -97 -125
-2 -8 -8 -7 -75 -34 -52 -77 -264 -252 -158 -122 -163 -242 -202 -60 -20 -24 -244 -215 -221 -229 -223 -208 -224 -193 0 0 0 -193 -130 -83
-3 -20 -51 -7 -10 -217 -46 -54 -206 -136 -74 -92 -123 -175 -177 -31 -91 -100 -77 -177 -203 -200 -195 -159 -132 -116 -187 0 0 -48 -132 -60
-23 -31 -42 -65 -1 0 -1 -52 -91 -198 -57 -28 -64 -91 -133 -100 -74 -41 -101 -70 -122 -163 -180 -117 -105 -93 -118 -97 0 0 0 -6
Wind_Speed
nan nan nan nan nan nan nan nan nan nan nan nan 7 11 nan nan nan 12 8 nan nan nan 11 9 12 11 13 13 10 9 6 12
nan nan nan nan nan nan nan nan nan nan nan nan 3 5 11 12 nan 12 8 7 8 nan nan 10 4 8 12 21 16 13 10 8
nan nan nan nan nan nan nan nan nan nan nan nan nan 8 9 10 11 nan 7 7 7 9 8 nan nan 8 12 18 16 13 12 11
nan nan nan nan nan nan nan nan nan nan nan nan 15 16 15 16 18 8 6 5 5 5 7 4 6 12 11 12 17 15 19 17
nan nan nan nan nan nan nan nan nan nan nan nan 21 nan 16 20 19 14 4 2 5 8 8 7 5 8 8 11 15 20 21 21
nan nan nan nan nan nan nan nan nan nan nan 22 20 22 23 19 22 17 9 11 9 7 8 7 6 6 8 9 13 17 11 14
nan nan nan nan nan nan nan nan nan nan nan 21 25 24 20 22 17 16 8 12 16 16 10 9 4 3 5 9 12 14 14 nan
nan nan nan nan nan nan nan nan nan nan nan nan 38 42 25 18 17 15 11 12 18 20 16 13 9 6 6 8 12 13 12 nan
nan nan nan nan nan nan nan nan nan nan nan nan 42 40 20 22 25 19 20 26 22 26 20 15 13 11 9 11 13 12 7 3
nan nan nan nan nan nan nan nan nan nan nan nan nan nan 28 19 25 21 23 28 31 25 17 11 11 12 13 15 15 13 10 5
nan nan nan nan nan nan nan nan nan nan nan nan nan nan 35 33 27 27 25 27 31 25 20 14 13 13 15 15 13 13 11 8
nan nan nan nan nan nan nan nan nan nan nan nan nan nan 35 30 31 21 24 28 27 25 20 18 14 16 17 16 15 14 13 13
nan nan nan nan nan nan nan nan nan nan nan nan 45 33 33 35 27 24 26 27 24 23 21 19 19 17 19 19 17 15 19 19
nan nan nan nan nan nan nan nan nan nan nan 34 28 40 47 40 29 28 30 31 26 27 21 20 22 21 21 21 19 20 24 23
nan nan nan nan nan nan nan nan nan nan nan 31 34 37 26 30 22 27 35 32 31 28 24 23 26 26 26 23 24 24 24 24
nan nan nan nan nan nan nan nan nan nan 28 21 35 37 38 35 27 32 32 33 28 30 27 25 26 27 25 nan nan nan 24 nan
nan nan nan nan nan nan nan nan 28 33 31 35 49 49 39 35 25 33 28 29 31 28 27 26 26 27 nan nan nan nan 24 25
nan nan nan nan nan nan nan nan 26 24 28 26 46 45 40 40 38 46 30 33 27 20 25 24 24 24 nan nan nan nan nan 23
nan nan nan nan nan nan nan nan nan 25 28 26 32 32 33 40 46 54 nan 19 15 16 19 24 25 26 30 nan nan nan nan nan
Wind_Direction
nan nan nan nan nan nan nan nan nan nan nan nan 231 223 nan nan nan 3 327 nan nan nan 271 292 232 248 250 237 235 255 234 235
nan nan nan nan nan nan nan nan nan nan nan nan 217 256 320 312 nan 344 327 308 283 nan nan 343 280 291 289 236 245 236 231 238
nan nan nan nan nan nan nan nan nan nan nan nan nan 307 311 304 314 nan 316 349 323 318 338 nan nan 293 301 228 240 241 247 237
nan nan nan nan nan nan nan nan nan nan nan nan 289 313 324 278 335 344 338 354 305 323 320 318 306 283 301 260 234 242 269 257
nan nan nan nan nan nan nan nan nan nan nan nan 268 nan 310 308 320 323 350 292 333 353 351 347 326 284 270 264 265 261 257 249
nan nan nan nan nan nan nan nan nan nan nan 244 273 279 287 300 310 314 335 347 339 333 331 336 348 322 276 260 257 270 260 264
nan nan nan nan nan nan nan nan nan nan nan 281 278 286 297 297 304 290 321 353 354 348 325 309 327 313 311 301 279 271 261 nan
nan nan nan nan nan nan nan nan nan nan nan nan 271 270 275 293 301 313 326 336 347 334 326 318 324 347 343 321 302 286 272 nan
nan nan nan nan nan nan nan nan nan nan nan nan 268 275 283 306 304 324 321 309 307 325 324 324 331 325 332 325 307 310 309 279
nan nan nan nan nan nan nan nan nan nan nan nan nan nan 289 279 294 296 314 307 295 299 301 320 312 315 312 318 322 322 315 297
nan nan nan nan nan nan nan nan nan nan nan nan nan nan 255 277 277 315 311 291 287 289 297 304 307 309 303 304 309 309 309 299
nan nan nan nan nan nan nan nan nan nan nan nan nan nan 258 281 284 277 283 286 284 288 292 298 302 298 299 298 307 315 319 308
nan nan nan nan nan nan nan nan nan nan nan nan 254 264 238 265 265 279 284 294 281 283 289 296 291 294 298 295 297 294 290 285
nan nan nan nan nan nan nan nan nan nan nan 253 268 271 243 260 267 284 294 300 298 280 280 286 291 293 297 299 291 287 290 287
nan nan nan nan nan nan nan nan nan nan nan 260 262 256 256 251 275 293 299 306 301 294 287 287 292 296 299 301 291 290 289 287
nan nan nan nan nan nan nan nan nan nan 244 252 251 250 250 255 280 278 282 293 285 286 289 292 294 296 298 nan nan nan 282 nan
nan nan nan nan nan nan nan nan 234 236 232 244 246 235 227 249 253 268 274 267 278 288 291 293 294 299 nan nan nan nan 276 274
nan nan nan nan nan nan nan nan 234 239 240 232 236 233 238 245 224 233 237 258 278 277 282 291 302 307 nan nan nan nan nan 273
nan nan nan nan nan nan nan nan nan 239 244 242 217 218 242 249 238 239 nan 202 246 273 280 297 306 311 305 nan nan nan nan nan